Tenerife Sur - Aeropuerto en Canarias

latitud = 28° 2' 49''N | longitud = 016° 33' 40''W
64 metros sobre el nivel del mar |

Fecha, hora, temperatura, viento dirección y velocidad, humedad y presión.

  • 22-11-2017 08:00:00 | 18.90°C | Norte |7.00 km/h | 38.00% | 1005.40 hPa
  • 22-11-2017 07:00:00 | 20.30°C | Norte |3.00 km/h | 29.00% | 1005.00 hPa
  • 22-11-2017 06:00:00 | 19.20°C | Calma |0.00 km/h | 23.00% | 1004.60 hPa
  • 22-11-2017 05:00:00 | 19.90°C | Nordeste |5.00 km/h | 22.00% | 1004.70 hPa
  • 22-11-2017 04:00:00 | 18.30°C | Nordeste |4.00 km/h | 21.00% | 1005.50 hPa
  • 22-11-2017 03:00:00 | 18.50°C | Norte |5.00 km/h | 20.00% | 1005.70 hPa
  • 22-11-2017 02:00:00 | 19.30°C | Nordeste |7.00 km/h | 19.00% | 1005.90 hPa
  • 22-11-2017 01:00:00 | 19.90°C | Nordeste |7.00 km/h | 20.00% | 1006.00 hPa
  • 22-11-2017 00:00:00 | 20.00°C | Nordeste |6.00 km/h | 20.00% | 1006.50 hPa
  • 21-11-2017 23:00:00 | 21.90°C | Nordeste |4.00 km/h | 18.00% | 1006.80 hPa
  • 21-11-2017 22:00:00 | 22.10°C | Norte |10.00 km/h | 18.00% | 1006.90 hPa
  • 21-11-2017 21:00:00 | 22.40°C | Norte |10.00 km/h | 20.00% | 1006.90 hPa
  • 21-11-2017 20:00:00 | 22.90°C | Nordeste |9.00 km/h | 22.00% | 1006.80 hPa
  • 21-11-2017 19:00:00 | 23.30°C | Nordeste |8.00 km/h | 27.00% | 1006.80 hPa
  • 21-11-2017 18:00:00 | 23.90°C | Este |4.00 km/h | 30.00% | 1007.10 hPa
  • 21-11-2017 17:00:00 | 24.60°C | Este |4.00 km/h | 27.00% | 1007.10 hPa
  • 21-11-2017 16:00:00 | 25.10°C | Este |4.00 km/h | 25.00% | 1007.40 hPa
  • 21-11-2017 15:00:00 | 25.50°C | Este |11.00 km/h | 28.00% | 1007.30 hPa
  • 21-11-2017 14:00:00 | 25.20°C | Este |14.00 km/h | 38.00% | 1007.70 hPa
  • 21-11-2017 13:00:00 | 24.80°C | Este |13.00 km/h | 36.00% | 1008.40 hPa
  • 21-11-2017 12:00:00 | 25.10°C | Este |11.00 km/h | 32.00% | 1009.40 hPa
  • 21-11-2017 11:00:00 | 25.70°C | Este |13.00 km/h | 32.00% | 1009.60 hPa
  • 21-11-2017 10:00:00 | 25.70°C | Nordeste |11.00 km/h | 29.00% | 1009.50 hPa
  • 21-11-2017 09:00:00 | 24.10°C | Este |10.00 km/h | 27.00% | 1009.00 hPa